sat.trackr.live / text

‹ back to catalog

STARLINK-4391

NORAD 53189 · 2022-084A

PAYLOAD ACTIVE UNKNOWN

§ Identity

Operator
Country
US
Launch date
2022-07-22
Launch site
AFWTR
Launch vehicle
Mass (kg)
RCS (m²)

Purposes: comms

External: N2YO · Heavens-Above · Gunter

§ Orbital elements

Epoch: 2026-09-20T03:32:18.790080Z

Period
93.91 min
Inclination
97.2837°
Eccentricity
0.0001396
Mean motion
15.33436391 rev/d
Perigee alt
464.6 km
Apogee alt
466.5 km
Semi-major
6,843.7 km
B*
3.6612e-5
RAAN
318.8993°
Arg perigee
92.7402°
Mean anomaly
267.4000°
Rev number
22,937

§ Raw data

STARLINK-43911 53189U 22084A   26263.14743970  .00001107  00000+0  36612-4 0  99962 53189  97.2837 318.8993 0001396  92.7402 267.4000 15.33436391229378

JSON: /api/v1/satellites/53189 · /tle

For live sub-satellite position, see the globe view (requires WebGL).

§ Visibility from observer

Set your observer location to see the next 7 days of passes ≥ 10°. The values pass through the URL so the page stays shareable.

No JS? Fill the form by hand. The geolocation button needs JavaScript.